Hourly Weather Golabek

Today, 15 May, Saturday

Time Temperature Precipitation Wind Pressure Humidity
00:00 +11°C° 0 mm 3 mps 744 mmHg 92%
01:00 +11°C° 0 mm 3 mps 744 mmHg 92%
02:00 +10°C° 0 mm 3 mps 744 mmHg 93%
03:00 +10°C° 0 mm 3 mps 744 mmHg 93%
04:00 +10°C° 0 mm 3 mps 744 mmHg 94%
05:00 +10°C° 0.2 mm 3 mps 745 mmHg 94%
06:00 +10°C° 0.2 mm 3 mps 745 mmHg 94%
07:00 +8°C° 0.2 mm 4 mps 745 mmHg 93%
08:00 +11°C° 0.1 mm 4 mps 746 mmHg 87%
09:00 +12°C° 0.1 mm 4 mps 746 mmHg 80%
10:00 +13°C° 0.1 mm 4 mps 746 mmHg 73%
11:00 +14°C° 0 mm 4 mps 746 mmHg 65%
12:00 +17°C° 0 mm 4 mps 746 mmHg 56%
13:00 +18°C° 0 mm 4 mps 746 mmHg 48%
14:00 +18°C° 0 mm 3 mps 745 mmHg 48%
15:00 +18°C° 0 mm 3 mps 745 mmHg 49%
16:00 +19°C° 0 mm 3 mps 745 mmHg 49%
17:00 +17°C° 0.1 mm 3 mps 745 mmHg 58%
18:00 +16°C° 0.1 mm 2 mps 745 mmHg 66%
19:00 +15°C° 0.1 mm 2 mps 745 mmHg 75%
20:00 +14°C° 0.4 mm 2 mps 745 mmHg 80%
21:00 +12°C° 0.4 mm 3 mps 745 mmHg 84%
22:00 +11°C° 0.4 mm 3 mps 745 mmHg 89%
23:00 +12°C° 1.4 mm 2 mps 745 mmHg 91%

Tomorrow, 16 May, Sunday

Time Temperature Precipitation Wind Pressure Humidity
00:00 +12°C° 1.4 mm 1 mps 745 mmHg 93%
01:00 +12°C° 1.4 mm 1 mps 745 mmHg 95%
02:00 +11°C° 0.3 mm 1 mps 744 mmHg 95%
03:00 +11°C° 0.3 mm 1 mps 744 mmHg 96%
04:00 +10°C° 0.3 mm 2 mps 744 mmHg 97%
05:00 +12°C° 0.2 mm 2 mps 744 mmHg 94%
06:00 +12°C° 0.2 mm 2 mps 744 mmHg 91%
07:00 +12°C° 0.2 mm 3 mps 744 mmHg 88%
08:00 +13°C° 0.2 mm 3 mps 744 mmHg 81%
09:00 +14°C° 0.2 mm 4 mps 744 mmHg 75%
10:00 +15°C° 0.2 mm 4 mps 744 mmHg 68%
11:00 +17°C° 0.2 mm 4 mps 744 mmHg 64%
12:00 +17°C° 0.2 mm 4 mps 744 mmHg 60%
13:00 +18°C° 0.2 mm 4 mps 744 mmHg 56%
14:00 +17°C° 0 mm 4 mps 744 mmHg 56%
15:00 +17°C° 0 mm 3 mps 744 mmHg 55%
16:00 +17°C° 0 mm 3 mps 743 mmHg 55%
17:00 +16°C° 0 mm 3 mps 743 mmHg 61%
18:00 +15°C° 0 mm 2 mps 743 mmHg 67%
19:00 +14°C° 0 mm 2 mps 743 mmHg 73%
20:00 +13°C° 0 mm 2 mps 743 mmHg 76%
21:00 +13°C° 0 mm 2 mps 743 mmHg 78%
22:00 +12°C° 0 mm 2 mps 743 mmHg 81%
23:00 +10°C° 0 mm 2 mps 743 mmHg 83%

Day after tomorrow, 17 May, Monday

Time Temperature Precipitation Wind Pressure Humidity
00:00 +10°C° 0 mm 2 mps 743 mmHg 86%
01:00 +9°C° 0 mm 2 mps 743 mmHg 88%
02:00 +9°C° 0 mm 2 mps 743 mmHg 89%
03:00 +9°C° 0 mm 2 mps 743 mmHg 91%
04:00 +8°C° 0 mm 2 mps 743 mmHg 92%
05:00 +10°C° 0 mm 3 mps 743 mmHg 86%
06:00 +11°C° 0 mm 3 mps 743 mmHg 80%
07:00 +13°C° 0 mm 3 mps 744 mmHg 74%
08:00 +14°C° 0.1 mm 3 mps 744 mmHg 71%
09:00 +15°C° 0.1 mm 4 mps 743 mmHg 67%
10:00 +17°C° 0.1 mm 4 mps 743 mmHg 64%
11:00 +17°C° 0.6 mm 3 mps 743 mmHg 64%
12:00 +17°C° 0.6 mm 3 mps 743 mmHg 65%
13:00 +17°C° 0.6 mm 3 mps 743 mmHg 65%
14:00 +17°C° 0.3 mm 3 mps 743 mmHg 66%
15:00 +17°C° 0.3 mm 3 mps 743 mmHg 67%
16:00 +16°C° 0.3 mm 3 mps 743 mmHg 69%
17:00 +15°C° 0.4 mm 2 mps 743 mmHg 74%
18:00 +15°C° 0.4 mm 2 mps 743 mmHg 79%
19:00 +14°C° 0.4 mm 2 mps 743 mmHg 84%
20:00 +13°C° 0 mm 2 mps 743 mmHg 87%
21:00 +12°C° 0 mm 2 mps 743 mmHg 90%
22:00 +10°C° 0 mm 2 mps 743 mmHg 93%
23:00 +9°C° 0 mm 2 mps 743 mmHg 94%

18 May, Tuesday

Time Temperature Precipitation Wind Pressure Humidity
00:00 +9°C° 0 mm 3 mps 743 mmHg 95%
01:00 +8°C° 0 mm 3 mps 743 mmHg 96%
02:00 +8°C° 0 mm 3 mps 743 mmHg 96%
03:00 +8°C° 0 mm 3 mps 743 mmHg 97%
04:00 +7°C° 0 mm 3 mps 743 mmHg 97%
05:00 +8°C° 0 mm 3 mps 744 mmHg 94%
06:00 +8°C° 0 mm 4 mps 744 mmHg 91%
07:00 +11°C° 0 mm 4 mps 744 mmHg 87%
08:00 +11°C° 0.1 mm 4 mps 744 mmHg 86%
09:00 +11°C° 0.1 mm 4 mps 744 mmHg 84%
10:00 +11°C° 0.1 mm 4 mps 745 mmHg 83%
11:00 +12°C° 0.2 mm 5 mps 745 mmHg 78%
12:00 +13°C° 0.2 mm 5 mps 745 mmHg 73%
13:00 +14°C° 0.2 mm 6 mps 745 mmHg 68%
14:00 +14°C° 0.2 mm 5 mps 745 mmHg 68%
15:00 +14°C° 0.2 mm 5 mps 745 mmHg 68%
16:00 +14°C° 0.2 mm 5 mps 746 mmHg 68%
17:00 +13°C° 0.1 mm 4 mps 746 mmHg 71%
18:00 +12°C° 0.1 mm 3 mps 746 mmHg 74%
19:00 +11°C° 0.1 mm 3 mps 746 mmHg 78%
20:00 +10°C° 0 mm 3 mps 747 mmHg 82%
21:00 +9°C° 0 mm 3 mps 747 mmHg 87%
22:00 +8°C° 0 mm 2 mps 747 mmHg 92%
23:00 +7°C° 0 mm 3 mps 747 mmHg 93%

19 May, Wednesday

Time Temperature Precipitation Wind Pressure Humidity
00:00 +7°C° 0 mm 3 mps 747 mmHg 93%
01:00 +7°C° 0 mm 3 mps 747 mmHg 93%
02:00 +7°C° 0 mm 3 mps 748 mmHg 94%
03:00 +5°C° 0 mm 3 mps 748 mmHg 94%
04:00 +5°C° 0 mm 3 mps 748 mmHg 94%
05:00 +6°C° 0 mm 4 mps 748 mmHg 90%
06:00 +7°C° 0 mm 5 mps 748 mmHg 86%
07:00 +8°C° 0 mm 6 mps 748 mmHg 83%
08:00 +9°C° 0 mm 5 mps 749 mmHg 81%
09:00 +9°C° 0 mm 5 mps 749 mmHg 79%
10:00 +9°C° 0 mm 5 mps 749 mmHg 77%
11:00 +10°C° 0.1 mm 5 mps 749 mmHg 71%
12:00 +13°C° 0.1 mm 5 mps 749 mmHg 65%
13:00 +14°C° 0.1 mm 5 mps 749 mmHg 59%
14:00 +13°C° 0.3 mm 5 mps 749 mmHg 60%
15:00 +13°C° 0.3 mm 5 mps 749 mmHg 62%
16:00 +13°C° 0.3 mm 5 mps 750 mmHg 64%
17:00 +12°C° 0.1 mm 4 mps 750 mmHg 67%
18:00 +12°C° 0.1 mm 4 mps 750 mmHg 70%
19:00 +11°C° 0.1 mm 3 mps 750 mmHg 73%
20:00 +10°C° 0 mm 3 mps 750 mmHg 78%
21:00 +9°C° 0 mm 3 mps 750 mmHg 83%
22:00 +7°C° 0 mm 3 mps 750 mmHg 89%
23:00 +7°C° 0 mm 3 mps 750 mmHg 91%

20 May, Thursday

Time Temperature Precipitation Wind Pressure Humidity
00:00 +5°C° 0 mm 3 mps 750 mmHg 93%
01:00 +5°C° 0 mm 3 mps 750 mmHg 95%
02:00 +5°C° 0 mm 3 mps 750 mmHg 96%
03:00 +5°C° 0 mm 3 mps 750 mmHg 96%
04:00 +5°C° 0 mm 3 mps 750 mmHg 97%
05:00 +6°C° 0 mm 4 mps 750 mmHg 90%
06:00 +8°C° 0 mm 4 mps 750 mmHg 82%
07:00 +9°C° 0 mm 5 mps 750 mmHg 75%
08:00 +10°C° 0 mm 5 mps 750 mmHg 67%
09:00 +13°C° 0 mm 6 mps 750 mmHg 59%
10:00 +14°C° 0 mm 6 mps 750 mmHg 52%
11:00 +14°C° 0 mm 6 mps 750 mmHg 51%
12:00 +14°C° 0 mm 5 mps 750 mmHg 51%
13:00 +14°C° 0 mm 5 mps 750 mmHg 51%
14:00 +14°C° 0.1 mm 5 mps 750 mmHg 51%
15:00 +14°C° 0.1 mm 5 mps 750 mmHg 52%
16:00 +14°C° 0.1 mm 5 mps 750 mmHg 52%
17:00 +13°C° 0 mm 4 mps 749 mmHg 57%
18:00 +12°C° 0 mm 3 mps 749 mmHg 63%
19:00 +12°C° 0 mm 2 mps 749 mmHg 69%
20:00 +10°C° 0 mm 2 mps 749 mmHg 73%
21:00 +9°C° 0 mm 2 mps 748 mmHg 77%
22:00 +8°C° 0 mm 2 mps 748 mmHg 82%
23:00 +8°C° 0 mm 2 mps 748 mmHg 83%
Show more